This is the latest recevied weather packets stored in our database for station/object KE8WMS. If no packets are shown the sender has not sent any weather packets the latest 1 day(s).
| Time | Temp. | Humidity | Pressure | Rain* | Wind** | Luminosity | Snow |
|---|---|---|---|---|---|---|---|
| 1777971283 | 19.44° C | 62% | 999.1 hPa | 0 mm | 2.24 m/s, 219° | 0 W/m² | - |
| 1777970982 | 19.44° C | 62% | 998.7 hPa | 0 mm | 1.34 m/s, 199° | 0 W/m² | - |
| 1777970680 | 19.44° C | 61% | 998.8 hPa | 0 mm | 3.13 m/s, 225° | 0 W/m² | - |
| 1777970377 | 19.44° C | 61% | 998.7 hPa | 0 mm | 1.34 m/s, 227° | 0 W/m² | - |
| 1777970074 | 20° C | 61% | 998.6 hPa | 0 mm | 2.24 m/s, 215° | 0 W/m² | - |
| 1777969771 | 20° C | 61% | 998.8 hPa | 0 mm | 1.34 m/s, 226° | 0 W/m² | - |
| 1777969466 | 20° C | 60% | 998.5 hPa | 0 mm | 3.13 m/s, 219° | 0 W/m² | - |
| 1777969164 | 20° C | 61% | 998.5 hPa | 0 mm | 0.89 m/s, 167° | 0 W/m² | - |
| 1777968860 | 20° C | 60% | 998.5 hPa | 0 mm | 0.89 m/s, 70° | 0 W/m² | - |
| 1777968557 | 20° C | 60% | 998.5 hPa | 0 mm | 2.68 m/s, 196° | 0 W/m² | - |
| 1777968253 | 20° C | 61% | 998.3 hPa | 0 mm | 1.79 m/s, 196° | 0 W/m² | - |
| 1777967948 | 19.44° C | 62% | 998.3 hPa | 0 mm | 2.24 m/s, 226° | 0 W/m² | - |
| 1777967645 | 19.44° C | 64% | 998.3 hPa | 0 mm | 0.89 m/s, 204° | 0 W/m² | - |
| 1777967343 | 19.44° C | 64% | 998.5 hPa | 0 mm | 1.34 m/s, 166° | 0 W/m² | - |
| 1777967040 | 18.89° C | 64% | 998.2 hPa | 0 mm | 0.89 m/s, 223° | 0 W/m² | - |
| 1777966737 | 18.89° C | 66% | 998.2 hPa | 0 mm | 0.89 m/s, 221° | 0 W/m² | - |
| 1777966435 | 18.89° C | 67% | 998.3 hPa | 0 mm | 0.89 m/s, 178° | 0 W/m² | - |
| 1777966132 | 18.89° C | 66% | 998.3 hPa | 0 mm | 0.89 m/s, 221° | 0 W/m² | - |
| 1777965828 | 18.89° C | 66% | 998.1 hPa | 0 mm | 0 m/s | 0 W/m² | - |
| 1777965524 | 18.89° C | 67% | 998.2 hPa | 0 mm | 0.45 m/s, 209° | 0 W/m² | - |
| 1777965220 | 18.89° C | 68% | 998.2 hPa | 0 mm | 1.34 m/s, 216° | 0 W/m² | - |
| 1777964919 | 18.89° C | 67% | 998.2 hPa | 0 mm | 1.34 m/s, 234° | 0 W/m² | - |
| 1777964615 | 18.89° C | 69% | 998.2 hPa | 0 mm | 1.34 m/s, 216° | 0 W/m² | - |
| 1777964310 | 18.89° C | 68% | 998.3 hPa | 0 mm | 1.34 m/s, 162° | 0 W/m² | - |
| 1777964007 | 19.44° C | 66% | 998.6 hPa | 0 mm | 1.34 m/s, 227° | 0 W/m² | - |
* Rain latest hour (hover to see other rain measurements)
** Current wind speed in m/s (hover to see current wind gust speed)